Las Vegas, NM

3:44 PM MDT on March 23, 2017 (GMT -0600)
Las Vegas Municipal

Weather History for KLVS - November, 2012

Change the Weather History Date:

Thursday, November 15, 2012

  Actual Average Record
Temperature  
Mean Temperature 40 °F -  
Max Temperature 52 °F 53 °F 75 °F (1990)
Min Temperature 28 °F 25 °F 6 °F (1997)
Degree Days  
Heating Degree Days 25    
Moisture  
Dew Point 6 °F    
Average Humidity 28    
Maximum Humidity 66    
Minimum Humidity 11    
Precipitation  
Precipitation 0.00 in - - ()
Sea Level Pressure  
Sea Level Pressure 30.20 in    
Wind  
Wind Speed 8 mph (ENE)    
Max Wind Speed 17 mph    
Max Gust Speed 23 mph    
Visibility 10 miles    
Events      
Averages and records for this station are not official NWS values.
T = Trace of Precipitation, MM = Missing Value Source: NWS Daily Summary

Daily Weather History Graph

Daily Weather History Graph

Search for Another Location

Airport or City:

Trip Planner

Search our weather history database for the weather conditions in past years. The results will help you decide how hot, cold, wet, or windy it might be!

Date:

Astronomy

Nov. 15, 2012 Rise Set
Actual Time 6:36 AM MST 4:53 PM MST
Civil Twilight 6:09 AM MST 5:20 PM MST
Nautical Twilight 5:38 AM MST 5:51 PM MST
Astronomical Twilight 5:08 AM MST 6:21 PM MST
Moon 8:32 AM MST (11/15) 6:49 PM MST (11/15)
Length of Visible Light 11h 10m
Length of Day
10h 16m
Waxing Crescent, 5% of the Moon is Illuminated
Nov 15
Waxing Crescent
Nov 20
First Quarter
Nov 28
Full
Dec 6
Last Quarter
Dec 13
New

Hourly Weather History & Observations

Time (MST) Temp. Windchill Dew Point Humidity Pressure Visibility Wind Dir Wind Speed Gust Speed Precip Events Conditions
12:53 AM 36.0 °F 32.1 °F -0.9 °F 21% 30.01 in 10.0 mi North 4.6 mph - N/A   Clear
1:53 AM 37.0 °F 31.6 °F -2.9 °F 18% 30.01 in 10.0 mi NNW 6.9 mph - N/A   Clear
2:53 AM 39.9 °F 35.8 °F -4.0 °F 16% 30.01 in 10.0 mi NNW 5.8 mph - N/A   Clear
3:53 AM 36.0 °F 29.6 °F -6.0 °F 17% 30.02 in 10.0 mi North 8.1 mph - N/A   Clear
5:53 AM 36.0 °F 30.3 °F -7.1 °F 16% 30.12 in 10.0 mi NNE 6.9 mph - N/A   Clear
6:53 AM 37.0 °F 29.8 °F -4.0 °F 17% 30.16 in 10.0 mi North 10.4 mph - N/A   Clear
7:53 AM 37.9 °F 30.9 °F -4.0 °F 17% 30.21 in 10.0 mi ENE 10.4 mph - N/A   Clear
8:53 AM 42.1 °F 39.2 °F -6.0 °F 13% 30.22 in 10.0 mi ENE 4.6 mph - N/A   Clear
9:53 AM 48.0 °F - -5.1 °F 11% 30.20 in 10.0 mi ENE 15.0 mph - N/A   Clear
10:53 AM 51.1 °F - 1.0 °F 13% 30.19 in 10.0 mi NE 15.0 mph 21.9 mph N/A   Clear
11:53 AM 51.1 °F - 7.0 °F 17% 30.24 in 10.0 mi ENE 17.3 mph 23.0 mph N/A   Clear
12:53 PM 52.0 °F - 9.0 °F 18% 30.20 in 10.0 mi East 9.2 mph - N/A   Clear
1:53 PM 52.0 °F - 9.0 °F 18% 30.18 in 10.0 mi East 6.9 mph - N/A   Clear
2:53 PM 52.0 °F - 9.0 °F 18% 30.18 in 10.0 mi ESE 6.9 mph - N/A   Clear
3:53 PM 48.9 °F - 12.0 °F 23% 30.22 in 10.0 mi ESE 3.5 mph - N/A   Clear
4:53 PM 45.0 °F 39.3 °F 14.0 °F 29% 30.25 in 10.0 mi SE 11.5 mph - N/A   Clear
5:53 PM 39.9 °F 32.9 °F 14.0 °F 35% 30.30 in 10.0 mi SE 11.5 mph - N/A   Clear
6:53 PM 37.9 °F 30.5 °F 15.1 °F 39% 30.31 in 10.0 mi SE 11.5 mph - N/A   Clear
7:53 PM 35.1 °F 29.3 °F 15.1 °F 44% 30.34 in 10.0 mi SE 6.9 mph - N/A   Clear
8:53 PM 35.1 °F 31.0 °F 17.1 °F 48% 30.34 in 10.0 mi East 4.6 mph - N/A   Clear
9:53 PM 32.0 °F 24.8 °F 19.9 °F 61% 30.33 in 10.0 mi East 8.1 mph - N/A   Clear
10:53 PM 28.0 °F 24.2 °F 18.0 °F 66% 30.34 in 10.0 mi West 3.5 mph - N/A   Clear
11:53 PM 33.1 °F 30.0 °F 21.9 °F 64% 30.32 in 10.0 mi WSW 3.5 mph - N/A   Clear